Find Starlink 11111

NORAD ID: 59764 Int'l Des: 2024-091 Owner: SPXS Country: US Constellation: starlink decayed
Auch bekannt als: STARLINK-11111 [DTC] celestrak
LEOCIRCULAR

Re-entered — 17. Aug. 2026

3D-Globus wird geladen...

About Starlink 11111

Starlink 11111 (NORAD 59764) is a starlink constellation satellite (v2 mini d2c) launched May 14, 2024 by SPXS of US. It re-entered the atmosphere on Aug 17, 2026. with a mass of 960.00 kg.

Höhenverlauf

Loading altitude history...

Zweizeiliger Elementsatz

1 59764U 24091M 26229.62448666 .16820535 12047-4 18436-2 0 9992
2 59764 53.1276 119.9463 0017751 229.2160 130.7347 16.35890984130960
Epoch: 17. Aug. 2026 • Age: 33 hours

Aktueller Status

Position data unavailable
Startdatum 14. Mai 2024
Alter 2.2 years
Verglühungsdatum 17. Aug. 2026
Typ internet

Technische Details

Klassifizierung Payload
Masse 960.00 kg
Trockenmasse 910.00 kg
Gesamtmasse 960.00 kg
Länge 0.30 m
Durchmesser 4.10 m
Spannweite 29.00 m
Form Box + pan
Hersteller SPXS
Bus-Typ Starlink V2MD
Phasenstatus In Orbit
Besitzer/Staat SPXS/US

Most Searched